• în România
  • Lista ţărilor
  • Pe 7 zile
  • Temperatura apei
  • Hartă satelitară
  • Meteo pe hartă
  • Widget-uri
  • user-avatar
    Intrare

    Meteo pe oră la Sunny Beach

    Astăzi, 25 Februarie, Duminică

    Timp Temperatura Precipitaţii Vânt Presiune Umiditate
    00:00 -1°C° 0,4 mm 6 m/s 731 mmHg 90%
    01:00 -1°C° 0,4 mm 6 m/s 732 mmHg 90%
    02:00 -1°C° 0 mm 6 m/s 732 mmHg 90%
    03:00 -2°C° 0,1 mm 7 m/s 732 mmHg 89%
    04:00 -3°C° 0,1 mm 7 m/s 732 mmHg 89%
    05:00 -3°C° 0,1 mm 7 m/s 733 mmHg 88%
    06:00 -4°C° 0 mm 7 m/s 733 mmHg 87%
    07:00 -4°C° 0 mm 7 m/s 734 mmHg 86%
    08:00 -6°C° 0 mm 7 m/s 734 mmHg 84%
    09:00 -4°C° 0 mm 6 m/s 734 mmHg 82%
    10:00 -4°C° 0 mm 6 m/s 735 mmHg 79%
    11:00 -3°C° 0 mm 6 m/s 735 mmHg 77%
    12:00 -3°C° 0 mm 6 m/s 735 mmHg 76%
    13:00 -2°C° 0 mm 6 m/s 735 mmHg 76%
    14:00 -2°C° 0 mm 6 m/s 735 mmHg 75%
    15:00 -2°C° 0,1 mm 6 m/s 735 mmHg 78%
    16:00 -2°C° 0,1 mm 6 m/s 735 mmHg 81%
    17:00 -3°C° 0,1 mm 6 m/s 735 mmHg 83%
    18:00 -3°C° 0,2 mm 6 m/s 735 mmHg 85%
    19:00 -3°C° 0,2 mm 6 m/s 735 mmHg 86%
    20:00 -3°C° 0,2 mm 6 m/s 735 mmHg 88%
    21:00 -3°C° 0,2 mm 7 m/s 735 mmHg 88%
    22:00 -2°C° 0,2 mm 7 m/s 735 mmHg 88%
    23:00 -2°C° 0,2 mm 7 m/s 734 mmHg 88%

    Mâine, 26 Februarie, Luni

    Timp Temperatura Precipitaţii Vânt Presiune Umiditate
    00:00 -2°C° 0,2 mm 7 m/s 734 mmHg 88%
    01:00 -2°C° 0,2 mm 8 m/s 734 mmHg 88%
    02:00 -2°C° 0,2 mm 8 m/s 733 mmHg 88%
    03:00 -3°C° 0,3 mm 9 m/s 733 mmHg 88%
    04:00 -3°C° 0,3 mm 9 m/s 732 mmHg 88%
    05:00 -3°C° 0,3 mm 9 m/s 732 mmHg 88%
    06:00 -3°C° 0,4 mm 10 m/s 732 mmHg 88%
    07:00 -3°C° 0,4 mm 10 m/s 731 mmHg 88%
    08:00 -3°C° 0,4 mm 11 m/s 731 mmHg 89%
    09:00 -3°C° 0,8 mm 11 m/s 731 mmHg 89%
    10:00 -3°C° 0,8 mm 12 m/s 730 mmHg 89%
    11:00 -3°C° 0,8 mm 12 m/s 730 mmHg 89%
    12:00 -3°C° 1 mm 12 m/s 729 mmHg 90%
    13:00 -3°C° 1 mm 12 m/s 728 mmHg 90%
    14:00 -4°C° 1 mm 13 m/s 727 mmHg 90%
    15:00 -4°C° 1,5 mm 13 m/s 727 mmHg 91%
    16:00 -4°C° 1,5 mm 13 m/s 726 mmHg 91%
    17:00 -4°C° 1,5 mm 13 m/s 725 mmHg 91%
    18:00 -3°C° 2,7 mm 12 m/s 725 mmHg 92%
    19:00 -3°C° 2,7 mm 12 m/s 725 mmHg 93%
    20:00 -3°C° 2,7 mm 11 m/s 725 mmHg 94%
    21:00 -3°C° 1,8 mm 11 m/s 725 mmHg 94%
    22:00 -3°C° 1,8 mm 11 m/s 725 mmHg 94%
    23:00 -4°C° 1,8 mm 11 m/s 725 mmHg 94%

    Poimâine, 27 Februarie, Marţi

    Timp Temperatura Precipitaţii Vânt Presiune Umiditate
    00:00 -4°C° 0,6 mm 11 m/s 725 mmHg 93%
    01:00 -6°C° 0,6 mm 11 m/s 725 mmHg 93%
    02:00 -6°C° 0,6 mm 11 m/s 725 mmHg 92%
    03:00 -5°C° 0,5 mm 10 m/s 726 mmHg 92%
    04:00 -6°C° 0,5 mm 9 m/s 726 mmHg 92%
    05:00 -8°C° 0,5 mm 9 m/s 726 mmHg 92%
    06:00 -7°C° 0,3 mm 8 m/s 727 mmHg 92%
    07:00 -8°C° 0,3 mm 7 m/s 728 mmHg 93%
    08:00 -8°C° 0,3 mm 6 m/s 728 mmHg 93%
    09:00 -8°C° 0,1 mm 6 m/s 729 mmHg 92%
    10:00 -7°C° 0,1 mm 5 m/s 729 mmHg 92%
    11:00 -7°C° 0,1 mm 5 m/s 730 mmHg 92%
    12:00 -5°C° 0,1 mm 4 m/s 730 mmHg 92%
    13:00 -5°C° 0,1 mm 4 m/s 730 mmHg 92%
    14:00 -4°C° 0,1 mm 4 m/s 731 mmHg 92%
    15:00 -4°C° 0,2 mm 4 m/s 731 mmHg 93%
    16:00 -5°C° 0,2 mm 4 m/s 731 mmHg 94%
    17:00 -5°C° 0,2 mm 4 m/s 732 mmHg 94%
    18:00 -6°C° 0,1 mm 3 m/s 732 mmHg 95%
    19:00 -6°C° 0,1 mm 3 m/s 733 mmHg 95%
    20:00 -7°C° 0,1 mm 3 m/s 733 mmHg 95%
    21:00 -7°C° 0 mm 3 m/s 734 mmHg 95%
    22:00 -6°C° 0 mm 3 m/s 734 mmHg 95%
    23:00 -6°C° 0 mm 3 m/s 734 mmHg 95%

    28 Februarie, Miercuri

    Timp Temperatura Precipitaţii Vânt Presiune Umiditate
    00:00 -6°C° 0 mm 3 m/s 735 mmHg 95%
    01:00 -6°C° 0 mm 3 m/s 735 mmHg 95%
    02:00 -7°C° 0 mm 4 m/s 735 mmHg 95%
    03:00 -7°C° 0,2 mm 4 m/s 734 mmHg 95%
    04:00 -7°C° 0,2 mm 5 m/s 734 mmHg 95%
    05:00 -8°C° 0,2 mm 6 m/s 734 mmHg 95%
    06:00 -8°C° 1,1 mm 6 m/s 733 mmHg 95%
    07:00 -8°C° 1,1 mm 7 m/s 733 mmHg 96%
    08:00 -8°C° 1,1 mm 7 m/s 733 mmHg 96%
    09:00 -7°C° 1,9 mm 8 m/s 732 mmHg 96%
    10:00 -8°C° 1,9 mm 9 m/s 731 mmHg 96%
    11:00 -7°C° 1,9 mm 10 m/s 731 mmHg 96%
    12:00 -7°C° 2,4 mm 10 m/s 730 mmHg 96%
    13:00 -7°C° 2,4 mm 10 m/s 730 mmHg 96%
    14:00 -7°C° 2,4 mm 10 m/s 729 mmHg 95%
    15:00 -8°C° 0,9 mm 10 m/s 729 mmHg 95%
    16:00 -9°C° 0,9 mm 10 m/s 730 mmHg 94%
    17:00 -11°C° 0,9 mm 11 m/s 730 mmHg 94%
    18:00 -10°C° 0,5 mm 10 m/s 731 mmHg 93%
    19:00 -11°C° 0,5 mm 9 m/s 732 mmHg 93%
    20:00 -12°C° 0,5 mm 9 m/s 732 mmHg 92%
    21:00 -12°C° 0,2 mm 8 m/s 733 mmHg 92%
    22:00 -12°C° 0,2 mm 8 m/s 734 mmHg 92%
    23:00 -12°C° 0,2 mm 8 m/s 735 mmHg 92%

    1 Martie, Joi

    Timp Temperatura Precipitaţii Vânt Presiune Umiditate
    00:00 -13°C° 0,1 mm 7 m/s 735 mmHg 91%
    01:00 -13°C° 0,1 mm 7 m/s 736 mmHg 91%
    02:00 -13°C° 0,1 mm 7 m/s 737 mmHg 91%
    03:00 -14°C° 0 mm 6 m/s 737 mmHg 91%
    04:00 -14°C° 0 mm 6 m/s 737 mmHg 91%
    05:00 -14°C° 0 mm 5 m/s 738 mmHg 92%
    06:00 -14°C° 0 mm 4 m/s 738 mmHg 91%
    07:00 -14°C° 0 mm 4 m/s 739 mmHg 91%
    08:00 -13°C° 0 mm 3 m/s 739 mmHg 90%
    09:00 -10°C° 0 mm 3 m/s 739 mmHg 88%
    10:00 -8°C° 0 mm 3 m/s 739 mmHg 86%
    11:00 -6°C° 0 mm 3 m/s 740 mmHg 84%
    12:00 -5°C° 0 mm 2 m/s 739 mmHg 84%
    13:00 -4°C° 0 mm 2 m/s 739 mmHg 84%
    14:00 -3°C° 0 mm 2 m/s 739 mmHg 83%
    15:00 -3°C° 0 mm 2 m/s 739 mmHg 85%
    16:00 -1°C° 0 mm 1 m/s 739 mmHg 86%
    17:00 -2°C° 0 mm 1 m/s 739 mmHg 87%
    18:00 -3°C° 0 mm 1 m/s 739 mmHg 88%
    19:00 -6°C° 0 mm 1 m/s 739 mmHg 89%
    20:00 -7°C° 0 mm 1 m/s 739 mmHg 89%
    21:00 -7°C° 0 mm 1 m/s 739 mmHg 89%
    22:00 -7°C° 0 mm 1 m/s 739 mmHg 90%
    23:00 -7°C° 0 mm 1 m/s 739 mmHg 90%

    2 Martie, Vineri

    Timp Temperatura Precipitaţii Vânt Presiune Umiditate
    00:00 -7°C° 0 mm 1 m/s 738 mmHg 90%
    01:00 -7°C° 0 mm 1 m/s 738 mmHg 90%
    02:00 -7°C° 0 mm 1 m/s 738 mmHg 90%
    03:00 -7°C° 0 mm 1 m/s 738 mmHg 90%
    04:00 -6°C° 0 mm 1 m/s 737 mmHg 90%
    05:00 -6°C° 0 mm 1 m/s 737 mmHg 89%
    06:00 -4°C° 0 mm 1 m/s 737 mmHg 89%
    07:00 -3°C° 0 mm 1 m/s 737 mmHg 89%
    08:00 -2°C° 0 mm 1 m/s 736 mmHg 89%
    09:00 -1°C° 0 mm 1 m/s 736 mmHg 90%
    10:00 -2°C° 0 mm 2 m/s 736 mmHg 91%
    11:00 -1°C° 0 mm 2 m/s 736 mmHg 93%
    12:00 +1°C° 0 mm 2 m/s 735 mmHg 93%
    13:00 +1°C° 0 mm 2 m/s 735 mmHg 94%
    14:00 +2°C° 0 mm 2 m/s 734 mmHg 95%
    15:00 +2°C° 0,1 mm 2 m/s 734 mmHg 96%
    16:00 +1°C° 0,1 mm 2 m/s 733 mmHg 96%
    17:00 +1°C° 0,1 mm 2 m/s 733 mmHg 97%
    18:00 +1°C° 0,2 mm 2 m/s 733 mmHg 97%
    19:00 +1°C° 0,2 mm 2 m/s 733 mmHg 97%
    20:00 +1°C° 0,2 mm 2 m/s 733 mmHg 97%
    21:00 +1°C° 0,1 mm 2 m/s 732 mmHg 97%
    22:00 +1°C° 0,1 mm 2 m/s 732 mmHg 97%
    23:00 +1°C° 0,1 mm 2 m/s 732 mmHg 97%
    Arată mai mult